P/2010 UH55 ( Spacewatch )

Japanese version
Home page
Updated on April 28, 2012

---------------------------------------------------------------------

* Profile

Discovery Date October 29, 2010
Magnitude 19.4 mag
Discoverer Spacewatch survey

* Pictures

* Orbital Elements

Epoch 2011 Apr. 29.0 TT = JDT 2455680.5
T 2011 May 10.36230 TT                                  MPC
q   2.7679688            (2000.0)            P               Q
n   0.05926890     Peri.  221.61814     -0.11361250     -0.98578505
a   6.5150555      Node   235.26466     +0.94670012     -0.06961930
e   0.5751427      Incl.    8.66255     +0.30141513     -0.15290840
P  16.6
From 148 observations 2010 Sept. 12-2012 Mar. 13, mean residual 0".5.

* Magnitudes Graph

        m1 = 11.5 + 5 log d + 10.0 log r(t - 200)

---------------------------------------------------------------------

The orbital elements are published on M.P.E.C. 2012-F11.
The magnitudes graphs are made with Comet for Windows.

---------------------------------------------------------------------

Copyright(C) Seiichi Yoshida (comet@aerith.net). All rights reserved.